Welcome to the website of the
United States Court of International Trade
A-Z Index    

Help | Advanced

Slip Opinions - 2011

Note: The Court works to ensure the timeliness and accuracy of this information. However, researchers should independently verify the status of the opinions as well as their precedential value and note that the slip opinions filed on the Court's CM/ECF system are the official court documents of record.
Having trouble viewing pdf documents?
2014
2013
2012
2011
2010
2009
2008
2007
2006
2005
2004
2003
2002
2001
2000
1999
Number Caption Date Court No. Judge Jurisdiction
11-159 Mueller Comercial de Mexico, S. de R.L. de C.V. v. United States 12/16/2011 10-00163 Eaton 1581(c)
11-158 JTEKT Corp. v. United States 12/15/2011 Consol. 08-00324 Stanceu 1581(c)
11-157 Legacy Classic Furniture, Inc. v. United States 12/15/2011 10-00352 Carman 1581(c)
11-156 C.B. Imps. Transamerica Corp. v. United States 12/14/2011 11-00036 Pogue 1581(i)
11-155 Amanda Foods (Vietnam) Ltd. v. United States 12/14/2011 Consol. 09-00431 Pogue 1581(c)
11-154 Applikon Biotechnology, Inc. v. United States 12/12/2011 Consol. 07-00364 Musgrave 1581(a)
11-153 Optimus, Inc. v. United States 12/09/2011 11-00152 Musgrave 1581(i)
11-152 French Feast, Inc. v. United States 12/09/2011 11-00131 Musgrave 1581(i)
11-151 Myonic GMBH v. United States 12/06/2011 11-00349 Carman 1581(c)
11-150 Victoria's Secret Direct, LLC v. United States 12/05/2011 07-00347 Stanceu 1581(a)
11-149 Lerner New York, Inc. v. United States 12/05/2011 07-00361 Stanceu 1581(a)
11-148 United States v. Inner Beauty Int'l (USA) Ltd. 12/02/2011 10-00256 Stanceu 1582
11-147 Clearon Corp. v. United States 11/30/2011 10-00377 Barzilay 1581(c)
11-146 Since Hardware Co., Ltd. v. United States 11/29/2011 09-00123 Eaton 1581(c)
11-145 Ford Motor Co. v. United States 11/28/2011 03-00115 Barzilay 1581(a)
11-144 Union Steel v. United States 11/21/2011 08-00101 Stanceu 1581(c)
11-143 Peer Bearing Co.-Changshan v. United States 11/21/2011 Consol. 10-00013 Stanceu 1581(c)
11-142 Clearon Corp. v. United States
Public version posted 11/28/2011.
11/18/2011 08-00364 Eaton 1581(c)
11-141 Horizon Lines, LLC v. United States 11/18/2011 08-00009 Wallach 1581(a)
11-140 Cisco Systems, Inc. v. United States 11/18/2011 04-00135 Wallach 1581(a)
11-139 Giorgio Foods, Inc. v. United States 11/17/2011 03-00286 Wallach 1581(i)
11-138 Kinetic Indus., Inc. v. United States 11/17/2011 10-00325 Tsoucalas 1581(i)
11-137 Diamond Sawblades Mfrs.Coal. v. United States 11/03/2011 Consol. 06-00248 Musgrave 1581(c)
11-136 Airflow Tech., Inc. v. United States
Errata: 11/10/2011
10/31/2011 02-00099 Ridgway 1581(a)
11-135 The Container Store v. United States
Errata: 11/8/11
10/26/2011 05-00385 Ridgway 1581(a)
11-134 Hebei Foreign Trade and Advertising Corp. v. United States 10/24/2011 09-00524 Restani 1581(c)
11-133 Firstrax v. United States 10/21/2011 07-00097 Aquilino 1581(a)
11-132 Furniture Brands Int'l, Inc. v. United States 10/20/2011 07-00026 Carman
Stanceu
Gordon
1581(i)
11-131 BASF Corp. v. United States 10/19/2011 02-00558 Wallach 1581(a)
11-130 Ford Motor Co. v. United States 10/18/2011 09-00375 Wallach 1581(i)
11-129 NTN Bearing Corp. of Am. v. United States 10/17/2011 10-00286 Stanceu 1581(c)(i)
11-128 Lizarraga Customs Broker v. United States Bureau of Customs & Border Prot. 10/17/2011 08-00400 Eaton 1581(i)
11-127 Aisin Holdings of Am., Inc. v. United States 10/14/2011 Consol. 11-00126 Barzilay 1581(i)
11-126 SKF USA Inc. v. United States 10/14/2011 07-00393 Stanceu 1581(c)(i)
11-125 Peer Bearing Co.-Changshan v. United States 10/13/2011 Consol. 11-00022 Stanceu 1581(c)
11-124 NSK Corp. v. United States 10/12/2011 Consol. 06-00334 Barzilay 1581(c)
11-123 Foshan Shunde Yongjian Housewares & Hardware Co., Ltd. v. United States 10/12/2011 10-00059 Eaton 1581(c)
11-122 Advanced Tech. & Materials Co., Ltd. v. United States
Public version posted 10/31/2011.
10/12/2011 Consol. 09-00511 Musgrave 1581(c)
11-121 SKF USA, Inc. v. United States 10/04/2011 09-00392 Stanceu 1581(c)(i)
11-120 Zhejiang Dunan Hetian Metal Co., Ltd. v. United States 09/28/2011 09-00217 Pogue 1581(c)
11-119 Jinan Yipin Corp. v. United States 09/26/2011 06-00189 Ridgway 1581(c)
11-118 Tianjin Magnesium Int'l Co. v. United States 09/23/2011 09-00535 Restani 1581(c)
11-117 Diamond Sawblades Mfrs. Coal. v. United States 09/22/2011 Consol. 06-00248 Musgrave 1581(c)
11-116 BP Oil Supply Co. v. United States 09/16/2011 04-00321 Musgrave 1581(a)
11-115 PSC VSMPO-AVISMA Corp. v. United States 09/15/2011 09-00349 Restani 1581(c)
11-114 Fuwei Films (Shandong) Co. v. United States 09/08/2011 Consol. 11-00061 Gordon 1581(c)
11-113 Toyota Motor Sales, U.S.A., Inc. v. United States 09/08/2011 04-00643 Eaton 1581(a)
11-112 Jinxiang Hejia Co., Ltd. v. United States 09/07/2011 09-00471 Barzilay 1581(c)
11-111 Atar, S.r.l. v. United States 09/07/2011 07-00086 Stanceu 1581(c)
11-110 Zhejiang Native Produce & Animal By-Prods. Imp. & Exp. Corp. v. United States 09/06/2011 02-00057 Eaton 1581(c)
11-109 United States v. Great Am. Ins. Co. of NY 08/31/2011 09-00187 Goldberg 1582
11-108 Shandong Rongxin Imp. & Exp. Co., Ltd. 08/30/2011 09-00316 Carman 1581(c)
11-107 Yieh Phui Enter. Co. v. United States
Public version posted 9/20/2011.
08/24/2011 10-00310 Gordon 1581(c)
11-106 Ad Hoc Shrimp Trade Action Comm. v. United States 08/24/2011 10-00275 Pogue 1581(c)
11-105 Advanced Tech. & Materials Co., Ltd. v. United States 08/18/2011 10-00012 Musgrave 1581(i)
11-104 Nucor Fastener Div. v. United States
Public version posted 9/19/2011.
08/11/2011 09-00531 Wallach 1581(c)
11-103 Roche Vitamins, Inc. v. United States 08/11/2011 04-00175 Wallach 1581(a)
11-102 United States v. Zatkova 08/11/2011 10-00071 Wallach 1582
11-101 Ass'n Am. School Paper Suppliers v. United States 8/11/2011 09-00163 Wallach 1581(c)
11-100 Tianjin Magnesium Int'l Co., Ltd. v. United States 8/10/2011 09-00535 Restani 1581(c)
11-99 Kairali Decan, Inc. v. United States 8/10/2011 10-00242 Carman 1581(i)
11-98 United States v. Canex Int'l Lumber Sales Ltd.
08/05/2001 06-00141 Restani 1582
11-97 Trust Chem Co. Ltd. v. United States 08/03/2011 10-00214 Pogue 1581(c)
11-96 Liberty Frozen Foods Pvt., Ltd. v. United States 08/03/2011 10-00231 Pogue 1581(c)
11-95 Dorbest Ltd. v. United States 08/03/2011 05-00003 Pogue 1581(c)
11-94 SKF USA Inc. v. United States 08/02/2011 10-00284 Stanceu 1581(c)(i)
11-93 Isaac Indus., Inc. v. United States 08/02/2011 07-00178 Pogue 1581(a)
11-92 JTEKT Corp. v. United States 07/29/2011 Consol. 06-00250 Stanceu 1581(c)
11-91 Constantine N. Polites v. United States 07/28/2011 09-00387 Pogue 1581(c)
11-90 Yangzhou Bestpak Gifts & Crafts Co. v. United States 07/26/2011 10-00295 Barzilay 1581(c)
11-89 Kahrs Int'l, Inc. v. United States 07/26/2011 07-00343 Carman 1581(a)(i)
11-88 Taian Ziyang Food Co., Ltd. v. United States 07/22/2011 05-00399 Ridgway 1581(c)
11-87 Atar, S.r.L. v. United States 07/22/2011 08-00004 Eaton 1581 (c)
11-86 JTEKT Corp. v. United States 07/20/2011 07-00377 Stanceu 1581(c)
11-85 Ocean Duke Corp. v. United States 07/18/2011 11-00140 Barzilay 1581(i)
11-84 Nat'l Presto Indus., Inc. v. United States 07/18/2011 07-00245 Tsoucalas 1581(a)
11-83 Qingdao Taifa Grp. Co., Ltd. v. United States 07/12/2011 08-00245 Restani 1581(c)
11-82 ArcelorMittal Stainless Belgium N.V. v. United States 07/12/2011 08-00434 Eaton 1581(c)
11-81 AWP Indus., Inc. v. United States
Public version posted 07/19/2011
07/12/2011 10-00250 Pogue 1581(c)
11-80 MCC Eurochem v. United States 07/08/2011 10-00260 Gordon 1581(c)
11-79 Wuxi Seamless Oil Pipe Co. v. United States 07/06/2011 10-00181 Wallach 1581(c)
11-78 Pomeroy Collection, Ltd. v. United States 07/06/2011 Consol. 04-00290 Pogue 1581(a)
11-77 NSK Bearings Europe, Ltd. v. United States 07/05/2011 Consol. 10-00289 Stanceu 1581(c)
11-76 NSK Ltd. v. United States 07/05/2011 10-00288 Stanceu 1581(c)
11-75 CBB Group, Inc. v. United States 06/27/2011 10-00383 Stanceu 1581(a)
11-74 Hiep Thanh Seafood Joint Stock Co. v. United States 06/23/2011 Consol. 09-00270 Gordon 1581(c)
11-73 Schaeffler Italia S.r.l. v. United States 06/22/2011 09-00386 Stanceu 1581(c)
11-72 Globe Metallurgical, Inc. v. United States 06/21/2011 Consol. 10-00032 Gordon 1581(c)
11-71 Ad Hoc Shrimp Trade Action Comm. v. United States 06/21/2011 07-00380 Aquilino 1581(c)
11-70 Shell Oil Co. v. United States 06/20/2011 08-00109 Ridgway 1581(a)
11-69 Shinyei Corp. of Am. v. United States 06/15/2011 08-00191 Restani 1581(a)
11-68 United States v. Trek Leather, Inc. 06/15/2011 09-00041 Tsoucalas 1582
11-67 Papierfabrik August Koehler AG v. United States 06/15/2011 08-00430 Pogue 1581(c)
11-66 United States Steel Corp. v. United States 06/14/2011 08-00216 Aquilino 1581(c)
11-65 Pastificio Lucio Garofalo, S.P.A. v. United States
Public version posted 7/06/2011.
06/08/2011 Consol. 10-00095 Pogue 1581(c)
11-64 Grobest & I-Mei Indus. (Vietnam) Co. v. United States 06/07/2011 Consol. 10-00238 Pogue 1581(c)
11-63 Pasta Zara SpA v. United States 06/06/2011 09-00001 Stanceu 1581(c)
11-62 SeAH Steel Corp. v. United States 05/26/2011 09-00248 Carman 1581(c)
11-61 Carpenter Tech. Corp. v. United States 05/26/2011 07-00366 Stanceu 1581(c)
11-60 Int'l Customs Prods., Inc. v. United States 05/26/2011 07-00318 Carman 1581(a)
11-59 Former Employees of South East Airlines v. United States Sec'y of Labor 05/26/2011 09-00522 Tsoucalas 1581(d)
11-58 Borusan Mannesmann Boru Sanayi ve Ticaret A.S. v. United States 05/26/2011 10-00312 Musgrave 1581(c)
11-57 United States v. American Home Assurance Co. 05/17/2011 09-00401 Eaton 1582
11-56 Shah Bros., Inc. v. United States 05/17/2011 10-00205 Pogue 1581(a)(i)
11-55 Mid Continent Nail Corp. v. United States 05/17/2011 10-00247 Tsoucalas 1581(c)
11-54 NSK Corp. v. United States 05/13/2011 06-00334 Barzilay 1581(c)
11-53 Shandong TTCA Biochemistry Co. v. United States
Public version posted 7/06/2011.
05/11/2011 09-00241 Wallach 1581(c)
11-52 JTEKT Corp. v. United States 05/05/2011 Consol. 07-00377 Stanceu 1581(c)
11-51 Graphite Sales v. United States 05/04/2011 07-00225 Tsoucalas 1581(a)
11-50 CBB Group, Inc. v. United States 04/28/2011 10-00383 Stanceu 1581(a)
11-49 KYD, Inc. v. United States
Public version posted 05/05/2011
04/28/2011 09-00034 Wallach 1581(c)
11-48 Shanghai Lian Li Paper Prods. Co. v. United States
Public version posted 05/09/2011
04/27/2011 09-00198 Wallach 1581(c)
11-47 Shandong Mach. Imp. & Exp. Co. v. United States 04/26/2011 07-00355 Eaton 1581(c)
11-46 Andaman Seafood Co. v. United States
Public version posted 05/05/2011
04/26/2011 08-00330 Wallach 1581(c)
11-45 Shandong Rongxin Imp. & Exp. Co., Ltd. v. United States 04/21/2011 09-00316 Carman 1581(c)
11-44 Jiaxing Brother Fastener Co. v. United States 04/21/2011 09-00205 Carman 1581(c)
11-43 NSK Corp. v. United States 04/20/2011 Consol. 06-00334 Barzilay 1581(c)
11-42 Flint Hills Res. v. United States 04/19/2011 06-00065 Pogue 1581(a)
11-41 Arch Chemicals, Inc. v. United States 04/15/2011 Consol. 08-00040 Eaton 1581(c)
11-40 Legacy Classic Furniture, Inc. v. United States 04/14/2011 10-00352 Carman 1581(c)
11-39 Amanda Foods (Vietnam) Ltd. v. United States 04/14/2011 Consol. 08-00301 Pogue 1581(c)
11-38 RHI Refractories Liaoning Co. v. United States 04/14/2011 10-00307
10-00309
Barzilay 1581(c)
11-37 Bond Street, Ltd. v. United States
Errata: 04/21/2011
04/12/2011 08-00049 Ridgway 1581(c)
11-36 Jinan Yipin Corp. v. United States 04/12/2011 Consol. 04-00240 Stanceu 1581(c)
11-35 United States v. Sweet Little Mexico Corp. 04/04/2011 10-00374
09-00236
Musgrave 1582 & 1581(a)
11-34 Hyosung Corp. v. United States
Public version posted 05/17/2011
03/31/2011 10-00114 Goldberg 1581(c)
11-33 SeAH Steel Corp. v. United States 03/29/2011 09-00248 Carman 1581(c)
11-32 Standard Furniture Mfg. Co. v. United States 03/23/2011 Consol. 07-00028

Carman
Stanceu
Gordon

1581(i)
11-31 Polites v. United States 03/23/2011 09-00387 Pogue 1581(c)
11-30 Borusan Mannesmann Boru Sanayi ve Ticaret A.S. v. United States 03/22/2011 10-00312 Musgrave 1581(c)
11-29 Saha Thai Steel Pipe (Public) Co. v. United States 03/22/2011 Consol. 08-00380 Musgrave 1581(c)
11-28 Five Rivers Elecs. Innovation, LLC v. United States 03/14/2011 10-00201 Gordon 1581(i)
11-27 Giorgio Foods, Inc. v. United States
Public version posted 04/08/2011
03/08/2011 03-00286 Wallach 1581(i)
11-26 Watanabe Grp. v. United States 03/08/2011 09-00520 Restani 1581(c)
11-25 PSC VSMPO-AVISMA Corp. v. United Sates 03/07/2011 09-00349 Restani 1581(c)
11-24 Asahi Seiko, Co., v. United States 03/01/2011 09-00415 Stanceu 1581 (c)
11-23 Estee Lauder Inc. v. United States 03/01/2011 07-00217 Musgrave 1581(a)
11-22 PSC VSMPO-AVISMA Corp. v. United States 03/01/2011 Consol. 08-00321 Barzilay 1581(c)
11-21 Calgon Carbon Corp. v. United States 02/17/2011 Consol 09-00518 Restani 1581(c)
11-20 Marsan Gida Sanayi ve Ticaret A.S. v. United States 02/16/2011 09-00483 Goldberg 1581(c)
11-19 United States Steel Corp. v. United States 02/15/2011 Consol. 09-00156 Stanceu 1581(c)
11-18 Union Steel v. United States 02/15/2011 09-00130 Stanceu 1581(c)
11-17 Tianjin Magnesium Int'l Co. v. United States 02/11/2011 09-00535 Restani 1581(c)
11-16 Lifestyle Enter., Inc. v. United States
Errata: 02/28/2011
02/11/2011 Consol. 09-00378 Restani 1581(c)
11-15 Norman G. Jensen, Inc. v. United States 02/10/2011 10-00115 Eaton 1581(i)
11-14 Dorbest Ltd. v. United States 02/09/2011 Consol. 05-00003 Pogue 1581(c)
11-13 MCC Eurochem v. United States 02/04/2011 10-00260 Gordon 1581(c)
11-12 RHI Refractories Liaoning Co. v. United States 01/31/2011 10-00309 Barzilay 1581(c)
11-11 Peer Bearing Co.-Changshan v. United States 01/28/2011 09-00052 Stanceu 1581(c)
11-10 Essar Steel Ltd. v. United States 01/25/2011 09-00197 Barzilay 1581(c)
11-09 Shandong TTCA Biochemistry v. United States 01/25/2011 Consol. 09-00241 Wallach 1581(c)
11-08 Xerox Corp. v. United States
Errata: 01/31/2011

01/24/2011 07-00337 Carman 1581(e)
11-07 FYH Bearing Units USA, Inc. v. United States 01/20/2011 09-00170 Restani 1581(c)
11-06 Pakfood Pub. Co. v. United States 01/18/2011 Consol. 09-00430 Pogue 1581(c)
11-05 Trumpf Medical Sys., Inc. v. United States 01/18/2011 07-00316 Pogue 1581(a)
11-04 iScholar, Inc. v. United States 01/13/2011 10-00107 Barzilay 1581(c)
11-03 Union Steel v. United States 01/11/2011 08-00101 Stanceu 1581(c)
11-02 King Supply Co. v. United States
Errata: 01/06/2011
01/06/2011 09-00477 Musgrave 1581(c)
11-01 Tianjin Mach. Imp. & Exp. Corp. v. United States
Public version posted 01/19/2011
01/04/2011 05-00522 Eaton 1581(c)


 

Feedback   

Last modified January 2, 2014